Flag for Brazil Weather past 2 weeks in Campinas, São Paulo, Brazil

Now
63 °F

Partly sunny.


Feels Like: 63 °F
Forecast: 54 / 67 °F
Wind: 7 mph from North

Location: Campinas Aeroporto

Current Time: Jul 26, 2014 at 2:53:48 PM

Latest Report: Jul 26, 2014 at 2:00 PM


Visibility: 6 mi

Pressure: 30.15 "Hg

Humidity: 83%

Dew point: 57 °F

Location of CampinasLocation

Historic Weather in Campinas — Graph

°F

Campinas temperature yesterday

Maximum temperature yesterday: 63 °F (at 12:00 AM)
Minimum temperature yesterday: 54 °F (at 11:00 PM)
Average temperature yesterday: 59 °F

Past Weeks' High & Low Weather Summary

 TemperatureHumidityPressure
High81 °F (Jul 17, 2:00 PM)100% (Jul 25, 2:00 AM)30.36 "Hg (Jul 25, 2:00 AM)
Low50 °F (Jul 20, 7:00 AM)24% (Jul 21, 4:00 PM)30.01 "Hg (Jul 24, 2:00 AM)
Average64 °F66%30.19 "Hg
* Reported Jul 11 1:00 PM — Jul 26 1:00 PM, Campinas, Weather by CustomWeather, © 2014

Note: Actual official high and low records may vary slightly from our data, if they occured in-between our weather recording intervals... More about our weather records

Advertising

Campinas weather history for previous 24 hours

 ConditionsComfort  
Time TempWeatherWind HumidityBarometerVisibility
1:00 PM
Jul 26
61 °FMore clouds than sun.6 mph88%30.21 "Hg4 mi
12:00 PM61 °FFog.3 mph88%30.21 "Hg2 mi
11:00 AM59 °FLight rain. Fog.5 mph88%30.24 "Hg2 mi
10:00 AM59 °FLight rain. Fog.3 mph88%30.24 "Hg2 mi
9:00 AM57 °FOvercast.5 mph88%30.21 "Hg4 mi
8:00 AM55 °FFog.6 mph94%30.18 "Hg3 mi
7:00 AM55 °FFog.5 mph94%30.15 "Hg3 mi
6:00 AM54 °FBroken clouds.1 mph100%30.18 "HgN/A
5:00 AM54 °FPartly cloudy.5 mph94%30.15 "HgN/A
4:00 AM54 °FPassing clouds.2 mph94%30.15 "HgN/A
3:00 AM54 °FClear.6 mph94%30.18 "Hg10 mi
2:00 AM54 °FPassing clouds.6 mph94%30.18 "HgN/A
1:00 AM54 °FPassing clouds.7 mph94%30.18 "HgN/A
12:00 AM54 °FPassing clouds.5 mph94%30.21 "HgN/A
11:00 PM
Jul 25
54 °FPassing clouds.7 mph94%30.18 "HgN/A
10:00 PM55 °FClear.7 mph88%30.18 "Hg10 mi
9:00 PM57 °FPassing clouds.6 mph82%30.18 "HgN/A
8:00 PM57 °FClear.7 mph77%30.15 "Hg10 mi
7:00 PM59 °FClear.6 mph77%30.15 "Hg10 mi
6:00 PM59 °FClear.5 mph72%30.15 "Hg10 mi
5:00 PM59 °FClear.3 mph72%30.12 "Hg10 mi
4:00 PM61 °FScattered clouds.5 mph72%30.12 "HgN/A
3:00 PM61 °FPartly sunny.8 mph72%30.12 "HgN/A
2:00 PM61 °FPartly sunny.7 mph72%30.12 "HgN/A
Weather by CustomWeather, © 2014

See weather overviewHow to use our weather pages